Regional Weather Roundup
Issued by NWS

Home | Current Version | Previous Version | Text Only | Print | Product List | Glossary On
Versions: 1 2 3 4 5 6 7 8 9 10 11 12 13 14 15 16 17 18 19 20 21 22 23 24 25 26 27 28 29 30 31 32 33 34 35 36 37 38 39 40 41 42 43 44 45 46 47 48 49 50
000
ASUS45 KABQ 302310
RWRNM
WEATHER ROUNDUP FOR NEW MEXICO
NATIONAL WEATHER SERVICE ALBUQUERQUE NM
500 PM MDT SAT AUG 30 2014

NOTE: "FAIR" MEANS FEW OR NO CLOUDS BELOW 12,000 FEET AGL WITH NO
       SIGNIFICANT WEATHER OR OBSTRUCTIONS TO VISION.

      THIS PRODUCT IS RELEASED AS TWO VERSIONS.  ONE VERSION NEAR
      THE TOP OF THE HOUR CONTAINING PRELIMINARY DATA FROM ALBUQUERQUE
      AND OTHER STATIONS.  A FINAL VERSION WITH ADDITIONAL DATA IS
      ISSUED ABOUT 10 MINUTES AFTER THE HOUR.

NMZ501-503-504-510>518-310000-
NORTHWEST PLATEAU/NORTHCENTRAL MOUNTAINS

CITY           SKY/WX    TMP DP  RH WIND       PRES   REMARKS
FARMINGTON     SUNNY     88  33  14 VRB7      30.03F
LOS ALAMOS     SUNNY     81  32  16 SW13      30.19S
SANTA FE       SUNNY     85  38  18 W13G18    30.12F
ANGEL FIRE     FAIR      73  34  23 W13       30.26S

$$
NMZ402-403-502-505>509-310000-
WESTCENTRAL MOUNTAINS/SOUTHWEST MOUNTAINS

CITY           SKY/WX    TMP DP  RH WIND       PRES   REMARKS
GALLUP         SUNNY     86  26  11 W14G20    30.13S
SILVER CITY    SUNNY     90  36  14 W7        30.10S

$$
NMZ407-409-411-412-310000-
SOUTHERN DESERTS

CITY           SKY/WX    TMP DP  RH WIND       PRES   REMARKS
LORDSBURG      FAIR      95  37  13 W5G16     29.99S
DEMING         SUNNY     94  35  12 S5        29.99F
LAS CRUCES     SUNNY     94  37  13 SW9       30.02S
HOLLOMAN AFB   SUNNY     94  42  16 W7        29.97S
ALAMOGORDO     SUNNY     91  41  17 S10       29.99F
T OR C         SUNNY     93  40  15 S13G21    30.01F

$$
NMZ519>523-310000-
CENTRAL VALLEYS/CENTRAL HIGHLANDS

CITY           SKY/WX    TMP DP  RH WIND       PRES   REMARKS
ALBUQUERQUE    PTSUNNY   89  40  17 S9        30.05F
DOUBLE EAGLE   PTSUNNY   86  41  20 SW14      30.08F
MORIARTY ARPT  FAIR      85  36  17 SW12G17   30.14S
CLINES CORNERS SUNNY     81  35  19 W20       30.18F
BELEN          FAIR      91  40  16 S8G16     30.03S
SOCORRO        FAIR      92  40  16 S13G21    30.01S

$$
NMZ524>526-539-540-310000-
SOUTHCENTRAL MOUNTAINS

CITY           SKY/WX    TMP DP  RH WIND       PRES   REMARKS
RUIDOSO        SUNNY     81  39  22 SW7       30.21S

$$
NMZ527>531-310000-
NORTHEAST HIGHLANDS/NORTHEAST PLAINS

CITY           SKY/WX    TMP DP  RH WIND       PRES   REMARKS
LAS VEGAS      SUNNY     82  36  19 W17G26    30.15S
RATON          MOSUNNY   86  34  15 S10G17    30.04F
CLAYTON        NOT AVBL

$$
NMZ532>537-310000-
EASTCENTRAL PLAINS

CITY           SKY/WX    TMP DP  RH WIND       PRES   REMARKS
TUCUMCARI      MOSUNNY   94  44  17 SW9       29.92F
CANNON AFB     MOSUNNY   90  45  20 S7G21     29.99F
CLOVIS AIRPORT   N/A     91  45  19 S14       30.01F

$$
NMZ028-029-538-310000-
SOUTHEAST PLAINS

CITY           SKY/WX    TMP DP  RH WIND       PRES   REMARKS
ROSWELL        MOSUNNY   96  45  17 S13       29.95F
CARLSBAD       SUNNY     97  35  11 S3        29.93F
HOBBS          MOSUNNY   91  45  19 E9        30.00F


$$


USA.gov is the U.S. government's official web portal to all federal, state and local government web resources and services.